Regional Weather Roundup
Issued by NWS

Home | Current Version | Previous Version | Text Only | Print | Product List | Glossary On
Versions: 1 2 3 4 5 6 7 8 9 10 11 12 13 14 15 16 17 18 19 20 21 22 23 24 25 26 27 28 29 30 31 32 33 34 35 36 37 38 39 40 41 42 43 44 45 46 47 48 49
000
ASUS45 KSLC 251910
RWRUT

UTAH REGIONAL WEATHER ROUNDUP
NATIONAL WEATHER SERVICE SALT LAKE CITY UT
100 PM MDT FRI JUL 25 2014

UTZ001>011-023>025-252000-

NORTHERN UTAH

CITY           SKY/WX    TMP DP  RH WIND       PRES   REMARKS
HILL AFB       SUNNY     83  46  27 VRB3      30.09F
LOGAN          SUNNY     79  32  18 N6        30.08F
OGDEN          SUNNY     83  46  27 VRB3      30.06F
PROVO AIRPORT  MOSUNNY   90  50  25 SE3       30.06F
SALT LAKE CITY MOSUNNY   85  48  27 NW9       30.03F
VERNAL         SUNNY     88  49  25 S8        30.09F
WENDOVER       SUNNY     84  34  16 SE7       30.05F
HEBER CITY     SUNNY     88  41  19 SW16G29   30.12F
WEST JORDAN    SUNNY     88  54  31 N12       30.07F

$$

UTZ012>022-026-027-252000-

SOUTHERN UTAH

CITY           SKY/WX    TMP DP  RH WIND       PRES   REMARKS
BRYCE CANYON   CLOUDY    76  45  33 W16G24    30.35F
CEDAR CITY     SUNNY     92  41  17 S15G26    30.16F
MILFORD        SUNNY     95  44  17 S17G24    30.08F HX  91
MOAB/CYNLANDS  MOSUNNY   90  46  21 SW10      30.07F
PRICE          SUNNY     89  44  20 E8        30.16F
ST GEORGE      CLEAR     99  50  19 NW7       29.97F HX  95

$$

REGIONAL REPORTS     COLORADO/ARIZONA

CITY           SKY/WX    TMP DP  RH WIND       PRES   REMARKS
CRAIG, CO      MOSUNNY   80  48  32 SW16G24   30.17F
GRAND JUNCTION TSTM      78  60  53 SW10      30.12S
RIFLE          PTSUNNY   87  47  24 VRB7      30.15F
MONTROSE       PTSUNNY   86  49  27 CALM      30.22F
CORTEZ         MOSUNNY   87  46  24 W9G18     30.23F
PAGE, AZ       MOSUNNY   97  47  18 VRB6      30.07F HX  93
GRAND CANYON   MOSUNNY   84  47  27 NW10      30.31F
KINGMAN        MOSUNNY   95  52  23 SW22G28   30.06S HX  92
FLAGSTAFF      MOSUNNY   84  43  23 W13G18    30.35F

$$

REGIONAL REPORTS    NEVADA/IDAHO/WYOMING

CITY           SKY/WX    TMP DP  RH WIND       PRES   REMARKS
LAS VEGAS, NV  CLOUDY    98  52  21 S13G21    29.87S HX  95
ELY            SUNNY     90  22   8 SW18G30   30.16S
ELKO           SUNNY     84  25  11 CALM      30.09F
POCATELLO, ID  SUNNY     76  32  20 W10G20    30.12F
BURLEY         SUNNY     74  35  24 W13G18    30.10F
EVANSTON, WY   SUNNY     84  34  16 SW23G32   30.22F
ROCK SPRINGS   SUNNY     86  27  11 W23G29    30.17F

$$



USA.gov is the U.S. government's official web portal to all federal, state and local government web resources and services.